Location: Gleizolles
(44.4833°N, 6.7667°E)
Time: 21:24:58
(UTC+00:00)

Explorer 7 - Pass Details

Date: 19 June 2024
Orbit: 465 x 619 km, 50.3° (Epoch: 19 July)

Event Time Altitude Azimuth Distance (km) Brightness Sun altitude
Rises 15:36:06 0° 295° (WNW) 2,541 11.0 37.0°
Reaches altitude 10° 15:38:22 10° 302° (WNW) 1,644 10.1 36.6°
Maximum altitude 15:41:54 42° 15° (NNE) 674 7.5 36.0°
Drops below altitude 10° 15:45:23 10° 88° (E) 1,616 8.8 35.4°
Sets 15:47:36 0° 96° (E) 2,491 9.7 35.0°
